| time (UTC) | temp C | wind direction | speed KPH | gust KPH | rain 1hr cm | rain 24hr cm | rain mn cm | humidity % | barometer mb |
| 20260507115827 | 2 | 202 | 0.0 | 0.0 | 0.00 | 0.51 | 0.00 | 94 | 1079.5 |
| 20260507114842 | 2 | 202 | 0.0 | 0.0 | 0.00 | 0.51 | 0.00 | 95 | 1079.3 |
| 20260507113925 | 2 | 202 | 0.0 | 0.0 | 0.00 | 0.53 | 0.00 | 94 | 1079.3 |
| 20260507113024 | 1 | 202 | 0.0 | 0.0 | 0.00 | 0.53 | 0.00 | 94 | 1079.3 |
| 20260507105126 | 1 | 202 | 0.0 | 0.0 | 0.00 | 0.58 | 0.00 | 95 | 1078.7 |
| 20260507104126 | 1 | 202 | 0.0 | 0.0 | 0.00 | 0.61 | 0.00 | 94 | 1078.6 |
| 20260507103127 | 1 | 202 | 0.0 | 0.0 | 0.00 | 0.61 | 0.00 | 94 | 1078.6 |
| 20260507102224 | 1 | 202 | 0.0 | 0.0 | 0.00 | 0.64 | 0.00 | 95 | 1078.5 |
| 20260507100226 | 1 | 202 | 0.0 | 0.0 | 0.00 | 0.66 | 0.00 | 95 | 1078.6 |
| 20260507095227 | 1 | 202 | 0.0 | 0.0 | 0.00 | 0.69 | 0.00 | 94 | 1078.7 |
| 20260507094325 | 1 | 202 | 0.0 | 0.0 | 0.00 | 0.69 | 0.00 | 95 | 1078.7 |
| 20260507093425 | 1 | 202 | 0.0 | 0.0 | 0.00 | 0.71 | 0.00 | 95 | 1078.6 |
| 20260507092426 | 2 | 202 | 0.0 | 0.0 | 0.00 | 0.71 | 0.00 | 94 | 1078.6 |
| 20260507092324 | 2 | 202 | 0.0 | 0.0 | 0.00 | 0.71 | 0.00 | 93 | 1078.4 |
| 20260507091341 | 2 | 202 | 0.0 | 0.0 | 0.00 | 0.71 | 0.00 | 93 | 1078.3 |
| 20260507090326 | 2 | 202 | 0.0 | 0.0 | 0.00 | 0.76 | 0.00 | 93 | 1078.4 |
| 20260507090227 | 2 | 202 | 0.0 | 0.0 | 0.00 | 0.76 | 0.00 | 93 | 1078.3 |
| 20260507084228 | 2 | 202 | 0.0 | 0.0 | 0.00 | 0.79 | 0.00 | 94 | 1078.4 |
| 20260507083241 | 2 | 202 | 0.0 | 0.0 | 0.00 | 0.81 | 0.00 | 94 | 1078.3 |
| 20260507082325 | 2 | 202 | 0.0 | 0.0 | 0.00 | 0.81 | 0.00 | 94 | 1078.2 |
| 20260507080325 | 2 | 202 | 0.0 | 0.0 | 0.00 | 0.86 | 0.00 | 94 | 1078.2 |
| 20260507075341 | 3 | 202 | 0.0 | 0.0 | 0.00 | 0.86 | 0.00 | 93 | 1078.2 |
| 20260507074426 | 2 | 202 | 0.0 | 0.0 | 0.00 | 0.89 | 0.00 | 94 | 1078.2 |
| 20260507073426 | 2 | 202 | 0.0 | 0.0 | 0.00 | 0.91 | 0.00 | 94 | 1078.2 |
| 20260507072425 | 2 | 202 | 0.0 | 0.0 | 0.00 | 0.91 | 0.00 | 93 | 1078.2 |
| 20260507071424 | 2 | 202 | 0.0 | 0.0 | 0.00 | 0.94 | 0.00 | 93 | 1078.2 |
| 20260507070425 | 3 | 202 | 0.0 | 0.0 | 0.00 | 0.97 | 0.00 | 93 | 1078.2 |
| 20260507065427 | 3 | 202 | 0.0 | 0.0 | 0.00 | 0.99 | 0.00 | 94 | 1078.4 |
| 20260507064525 | 3 | 202 | 0.0 | 0.0 | 0.00 | 0.99 | 0.00 | 93 | 1078.4 |
| 20260507062525 | 3 | 202 | 0.0 | 0.0 | 0.00 | 1.04 | 0.00 | 93 | 1078.6 |
| 20260507061624 | 4 | 202 | 0.0 | 0.0 | 0.00 | 1.07 | 0.00 | 93 | 1078.6 |
| 20260507060624 | 4 | 202 | 0.0 | 0.0 | 0.00 | 1.07 | 0.00 | 92 | 1078.5 |
| 20260507055626 | 3 | 202 | 0.0 | 0.0 | 0.00 | 1.09 | 0.00 | 92 | 1078.5 |
| 20260507053625 | 4 | 202 | 0.0 | 0.0 | 0.00 | 1.14 | 0.00 | 92 | 1078.6 |
| 20260507052625 | 4 | 202 | 0.0 | 0.0 | 0.00 | 1.17 | 0.00 | 93 | 1078.5 |
| 20260507050641 | 4 | 202 | 0.0 | 0.0 | 0.00 | 1.19 | 0.00 | 91 | 1078.8 |
| 20260507045626 | 4 | 202 | 0.0 | 0.0 | 0.00 | 1.22 | 0.00 | 92 | 1078.9 |
| 20260507044625 | 4 | 202 | 0.0 | 0.0 | 0.00 | 1.24 | 0.00 | 92 | 1078.8 |
| 20260507043626 | 5 | 202 | 0.0 | 0.0 | 0.00 | 1.24 | 0.00 | 91 | 1078.7 |
| 20260507043540 | 5 | 202 | 0.0 | 0.0 | 0.00 | 1.27 | 0.00 | 91 | 1078.7 |
| 20260507042542 | 5 | 202 | 0.0 | 0.0 | 0.00 | 1.27 | 0.00 | 92 | 1078.8 |
| 20260507041624 | 5 | 202 | 0.0 | 0.0 | 0.00 | 1.30 | 0.00 | 92 | 1078.9 |
| 20260507033630 | 5 | 202 | 0.0 | 0.0 | 0.00 | 1.37 | 1.32 | 91 | 1078.6 |
| 20260507032629 | 6 | 202 | 0.0 | 0.0 | 0.00 | 1.40 | 1.32 | 90 | 1078.8 |
| 20260507032546 | 6 | 202 | 0.0 | 0.0 | 0.00 | 1.40 | 1.32 | 90 | 1078.8 |
| 20260507031529 | 5 | 202 | 0.0 | 0.0 | 0.00 | 1.40 | 1.32 | 90 | 1078.8 |
| 20260507024545 | 6 | 202 | 0.0 | 0.0 | 0.00 | 1.45 | 1.32 | 88 | 1078.8 |
| 20260507023629 | 6 | 202 | 0.0 | 0.0 | 0.00 | 1.50 | 1.32 | 87 | 1078.9 |
| 20260507021629 | 6 | 202 | 0.0 | 0.0 | 0.00 | 1.55 | 1.32 | 85 | 1079.0 |
| 20260507020629 | 6 | 202 | 0.0 | 0.0 | 0.00 | 1.55 | 1.32 | 85 | 1078.6 |
| 20260507015628 | 6 | 202 | 0.0 | 0.0 | 0.00 | 1.57 | 1.32 | 84 | 1078.7 |
| 20260507014629 | 7 | 202 | 0.0 | 0.0 | 0.00 | 1.60 | 1.32 | 82 | 1078.5 |
| 20260507013546 | 7 | 202 | 0.0 | 0.0 | 0.00 | 1.63 | 1.32 | 80 | 1078.4 |
| 20260507012529 | 7 | 202 | 0.0 | 0.0 | 0.00 | 1.65 | 1.32 | 78 | 1078.2 |
| 20260507011546 | 8 | 202 | 0.0 | 0.0 | 0.00 | 1.68 | 1.32 | 78 | 1078.4 |
| 20260507005628 | 8 | 202 | 0.0 | 0.0 | 0.00 | 1.73 | 1.32 | 75 | 1078.5 |
| 20260507004630 | 9 | 202 | 0.0 | 0.0 | 0.00 | 1.75 | 1.32 | 73 | 1078.4 |
| 20260507003629 | 10 | 225 | 0.0 | 0.0 | 0.00 | 1.75 | 1.32 | 72 | 1078.3 |
| 20260507002631 | 10 | 225 | 0.0 | 0.0 | 0.00 | 1.78 | 1.32 | 70 | 1078.2 |
| 20260507001728 | 11 | 225 | 0.0 | 0.0 | 0.00 | 1.80 | 1.32 | 68 | 1078.0 |
| 20260507000728 | 11 | 225 | 0.0 | 0.0 | 0.00 | 1.80 | 1.32 | 68 | 1078.0 |
| 20260506235728 | 12 | 225 | 0.0 | 0.0 | 0.00 | 1.83 | 1.32 | 65 | 1077.8 |
| 20260506234730 | 12 | 225 | 0.0 | 0.0 | 0.00 | 1.83 | 1.32 | 62 | 1078.0 |
| 20260506233729 | 12 | 225 | 0.0 | 0.0 | 0.00 | 1.85 | 1.32 | 59 | 1077.8 |
| 20260506232828 | 13 | 243 | 1.6 | 4.8 | 0.00 | 1.85 | 1.32 | 61 | 1077.8 |
| 20260506231844 | 13 | 45 | 0.0 | 0.0 | 0.00 | 1.85 | 1.32 | 60 | 1077.6 |
| 20260506230930 | 13 | 45 | 0.0 | 0.0 | 0.00 | 1.85 | 1.32 | 60 | 1077.9 |
| 20260506225046 | 13 | 45 | 0.0 | 0.0 | 0.00 | 1.85 | 1.32 | 60 | 1077.9 |
| 20260506224130 | 13 | 45 | 0.0 | 0.0 | 0.00 | 1.85 | 1.32 | 57 | 1078.0 |
| 20260506223129 | 13 | 45 | 0.0 | 0.0 | 0.00 | 1.88 | 1.32 | 55 | 1077.9 |
| 20260506222129 | 13 | 45 | 0.0 | 0.0 | 0.00 | 1.91 | 1.32 | 54 | 1078.1 |
| 20260506220244 | 14 | 360 | 0.0 | 0.0 | 0.00 | 1.93 | 1.32 | 56 | 1078.2 |
| 20260506214346 | 14 | 45 | 0.0 | 1.6 | 0.00 | 1.98 | 1.32 | 56 | 1078.2 |
| 20260506213328 | 15 | 67 | 0.0 | 0.0 | 0.00 | 2.01 | 1.32 | 56 | 1078.0 |
| 20260506212330 | 15 | 337 | 0.0 | 0.0 | 0.00 | 2.01 | 1.32 | 57 | 1077.9 |
| 20260506211427 | 14 | 67 | 0.0 | 0.0 | 0.00 | 2.03 | 1.32 | 55 | 1077.8 |
| 20260506210429 | 14 | 36 | 0.0 | 0.0 | 0.00 | 2.06 | 1.32 | 53 | 1077.5 |
| 20260506205528 | 14 | 115 | 3.2 | 8.0 | 0.00 | 2.08 | 1.32 | 55 | 1077.5 |
| 20260506204527 | 14 | 12 | 0.0 | 1.6 | 0.00 | 2.11 | 1.32 | 55 | 1077.6 |
| 20260506203429 | 14 | 28 | 1.6 | 3.2 | 0.00 | 2.16 | 1.32 | 57 | 1077.7 |
| 20260506202527 | 14 | 157 | 0.0 | 0.0 | 0.00 | 2.18 | 1.32 | 56 | 1077.6 |
| 20260506202429 | 14 | 157 | 0.0 | 0.0 | 0.00 | 2.18 | 1.32 | 56 | 1077.7 |
| 20260506201427 | 14 | 180 | 0.0 | 0.0 | 0.00 | 2.24 | 1.32 | 57 | 1077.7 |
| 20260506201329 | 14 | 180 | 0.0 | 0.0 | 0.00 | 2.24 | 1.32 | 57 | 1077.6 |
| 20260506200346 | 15 | 337 | 0.0 | 0.0 | 0.00 | 2.29 | 1.32 | 53 | 1077.7 |
| 20260506195430 | 15 | 45 | 0.0 | 3.2 | 0.00 | 2.34 | 1.32 | 53 | 1077.6 |
| 20260506194528 | 15 | 297 | 0.0 | 1.6 | 0.00 | 2.36 | 1.32 | 54 | 1077.6 |
| 20260506192528 | 15 | 231 | 1.6 | 9.7 | 0.00 | 2.39 | 1.32 | 52 | 1077.4 |
| 20260506191544 | 15 | 10 | 0.0 | 3.2 | 0.03 | 2.39 | 1.32 | 55 | 1077.4 |
| 20260506190627 | 15 | 333 | 0.0 | 0.0 | 0.03 | 2.39 | 1.32 | 53 | 1077.3 |
| 20260506190528 | 15 | 275 | 1.6 | 4.8 | 0.03 | 2.39 | 1.32 | 53 | 1077.4 |
| 20260506185529 | 15 | 315 | 0.0 | 1.6 | 0.03 | 2.39 | 1.32 | 53 | 1077.5 |
| 20260506184628 | 16 | 301 | 0.0 | 3.2 | 0.03 | 2.39 | 1.32 | 54 | 1077.2 |
| 20260506183630 | 15 | 360 | 0.0 | 3.2 | 0.03 | 2.39 | 1.32 | 50 | 1077.2 |
| 20260506182728 | 16 | 75 | 1.6 | 6.4 | 0.03 | 2.39 | 1.32 | 52 | 1077.2 |
| 20260506181745 | 16 | 242 | 0.0 | 3.2 | 0.00 | 2.36 | 1.30 | 52 | 1077.3 |
| 20260506180828 | 16 | 241 | 1.6 | 4.8 | 0.00 | 2.36 | 1.30 | 55 | 1077.1 |
| 20260506175828 | 15 | 92 | 1.6 | 6.4 | 0.00 | 2.36 | 1.30 | 54 | 1077.4 |
| 20260506174828 | 15 | 20 | 0.0 | 1.6 | 0.00 | 2.36 | 1.30 | 54 | 1077.8 |
| 20260506172928 | 15 | 360 | 0.0 | 0.0 | 0.03 | 2.36 | 1.30 | 55 | 1077.6 |
| 20260506170928 | 15 | 37 | 3.2 | 6.4 | 0.08 | 2.36 | 1.30 | 57 | 1077.7 |
| 20260506170027 | 15 | 290 | 0.0 | 1.6 | 0.10 | 2.36 | 1.30 | 57 | 1077.8 |
| 20260506165028 | 15 | 59 | 1.6 | 4.8 | 0.13 | 2.36 | 1.30 | 60 | 1077.8 |
| 20260506164028 | 15 | 54 | 3.2 | 4.8 | 0.15 | 2.36 | 1.30 | 58 | 1077.9 |
| 20260506162045 | 14 | 291 | 0.0 | 1.6 | 0.15 | 2.31 | 1.24 | 62 | 1077.7 |
| 20260506161127 | 13 | 315 | 0.0 | 1.6 | 0.13 | 2.29 | 1.22 | 63 | 1077.7 |
| 20260506160128 | 13 | 73 | 3.2 | 6.4 | 0.13 | 2.26 | 1.19 | 61 | 1077.7 |
| 20260506154129 | 13 | 10 | 1.6 | 4.8 | 0.10 | 2.21 | 1.14 | 63 | 1078.0 |
| 20260506153227 | 13 | 19 | 1.6 | 4.8 | 0.13 | 2.21 | 1.12 | 64 | 1078.0 |
| 20260506152228 | 13 | 251 | 0.0 | 1.6 | 0.13 | 2.18 | 1.12 | 66 | 1077.9 |
| 20260506151230 | 12 | 290 | 1.6 | 3.2 | 0.10 | 2.16 | 1.09 | 70 | 1077.3 |
| 20260506150228 | 12 | 199 | 0.0 | 3.2 | 0.10 | 2.13 | 1.07 | 73 | 1077.2 |
| 20260506145229 | 12 | 22 | 0.0 | 0.0 | 0.08 | 2.11 | 1.04 | 77 | 1076.8 |
| 20260506144327 | 12 | 268 | 0.0 | 1.6 | 0.10 | 2.11 | 1.04 | 79 | 1076.7 |
| 20260506144228 | 12 | 9 | 0.0 | 1.6 | 0.10 | 2.11 | 1.04 | 79 | 1076.7 |
| 20260506143228 | 11 | 41 | 3.2 | 6.4 | 0.08 | 2.08 | 1.02 | 85 | 1076.6 |
| 20260506141326 | 10 | 26 | 1.6 | 3.2 | 0.08 | 2.06 | 0.99 | 91 | 1076.7 |
| 20260506140327 | 10 | 360 | 0.0 | 0.0 | 0.08 | 2.03 | 0.97 | 92 | 1076.6 |
| 20260506134327 | 8 | 26 | 1.6 | 3.2 | 0.08 | 2.01 | 0.94 | 94 | 1076.6 |
| 20260506132428 | 8 | 45 | 0.0 | 1.6 | 0.08 | 1.98 | 0.91 | 95 | 1075.9 |
| 20260506131428 | 8 | 45 | 0.0 | 0.0 | 0.08 | 1.98 | 0.91 | 95 | 1076.1 |
| 20260506131327 | 8 | 45 | 0.0 | 0.0 | 0.08 | 1.98 | 0.91 | 95 | 1076.1 |
| 20260506131244 | 8 | 45 | 0.0 | 0.0 | 0.08 | 1.98 | 0.91 | 95 | 1076.1 |
| 20260506130328 | 8 | 45 | 0.0 | 0.0 | 0.08 | 1.96 | 0.89 | 95 | 1076.0 |
| 20260506124330 | 7 | 45 | 0.0 | 0.0 | 0.08 | 1.93 | 0.86 | 94 | 1075.4 |
| 20260506122428 | 7 | 229 | 0.0 | 4.8 | 0.08 | 1.91 | 0.84 | 94 | 1075.5 |
| 20260506121444 | 7 | 67 | 0.0 | 0.0 | 0.08 | 1.91 | 0.84 | 94 | 1075.1 |